Redmond, OR

12:24 AM PST on November 14, 2019 (GMT -0800)
Roberts Field Airport

Weather History for KRDM - August, 2019

Change the Weather History Date:

Wednesday, August 28, 2019

  Actual Average Record
Temperature  
Mean Temperature 73 °F 62 °F  
Max Temperature 100 °F 82 °F 101 °F (1998)
Min Temperature 46 °F 43 °F 25 °F (1960)
Degree Days  
Heating Degree Days 0 4  
Month to date heating degree days 14 68  
Since 1 June heating degree days 196 354  
Since 1 July heating degree days 47 137  
Cooling Degree Days 8 1  
Month to date cooling degree days 123 77  
Year to date cooling degree days 229 203  
Since 1 June cooling degree days 229 198  
Growing Degree Days 23 (Base 50)    
Moisture  
Dew Point 42 °F    
Average Humidity 40    
Maximum Humidity 65    
Minimum Humidity 14    
Precipitation  
Precipitation T in 0.02 in 0.36 in (1953)
Month to date precipitation T 0.45  
Year to date precipitation 7.46 5.68  
Sea Level Pressure  
Sea Level Pressure 29.90 in    
Wind  
Wind Speed 5 mph (South)    
Max Wind Speed 18 mph    
Max Gust Speed 23 mph    
Visibility 10 miles    
Events      
T = Trace of Precipitation, MM = Missing Value Source: NWS Daily Summary

Daily Weather History Graph

Daily Weather History Graph

Search for Another Location

Airport or City:

Astronomy

Aug. 28, 2019 Rise Set
Actual Time 6:22 AM PDT 7:48 PM PDT
Civil Twilight 5:52 AM PDT 8:18 PM PDT
Nautical Twilight 5:16 AM PDT 8:54 PM PDT
Astronomical Twilight 4:37 AM PDT 9:33 PM PDT
Moon 3:54 AM PDT (8/28) 7:09 PM PDT (8/28)
Length of Visible Light 14h 25m
Length of Day
13h 25m
Waning Crescent, 4% of the Moon is Illuminated
Aug 28
Waning Crescent
Aug 30
New
Sep 5
First Quarter
Sep 13
Full
Sep 21
Last Quarter

Hourly Weather History & Observations

Time (PDT) Temp. Windchill Dew Point Humidity Pressure Visibility Wind Dir Wind Speed Gust Speed Precip Events Conditions
12:56 AM 57.9 °F - 37.0 °F 46% 29.94 in 10.0 mi SSE 3.5 mph - N/A   Clear
1:56 AM 55.9 °F - 37.0 °F 49% 29.94 in 10.0 mi SE 3.5 mph - N/A   Clear
2:56 AM 53.1 °F - 37.0 °F 55% 29.93 in 10.0 mi Calm Calm - N/A   Clear
3:56 AM 51.1 °F - 37.0 °F 59% 29.92 in 10.0 mi Calm Calm - N/A   Clear
4:56 AM 46.0 °F 44.8 °F 35.1 °F 66% 29.93 in 10.0 mi SSE 3.5 mph - N/A   Clear
5:56 AM 46.9 °F - 36.0 °F 66% 29.92 in 10.0 mi SE 4.6 mph - N/A   Clear
6:56 AM 52.0 °F - 37.9 °F 59% 29.92 in 10.0 mi East 3.5 mph - N/A   Clear
7:56 AM 61.0 °F - 39.9 °F 46% 29.93 in 10.0 mi SE 3.5 mph - N/A   Clear
8:56 AM 70.0 °F - 39.9 °F 33% 29.91 in 10.0 mi ENE 3.5 mph - N/A   Clear
9:56 AM 75.9 °F - 41.0 °F 29% 29.91 in 10.0 mi Variable 4.6 mph - N/A   Clear
10:56 AM 82.0 °F - 39.0 °F 22% 29.89 in 10.0 mi North - - N/A   Clear
10:58 AM 82.0 °F - 39.0 °F 22% 29.98 in 10.0 mi SSE 5.8 mph - N/A   Clear
11:56 AM 88.0 °F - 37.9 °F 17% 29.88 in 10.0 mi Calm Calm - N/A   Clear
12:56 PM 91.9 °F - 37.9 °F 15% 29.88 in 10.0 mi Calm Calm - N/A   Clear
1:56 PM 97.0 °F - 41.0 °F 14% 29.85 in 10.0 mi Variable 5.8 mph - N/A   Clear
2:56 PM 99.0 °F - 42.1 °F 14% 29.84 in 10.0 mi North 8.1 mph - N/A   Clear
3:56 PM 100.0 °F - 43.0 °F 14% 29.82 in 10.0 mi North 10.4 mph - N/A   Clear
4:56 PM 93.9 °F - 44.1 °F 18% 29.87 in 10.0 mi West 9.2 mph - N/A   Mostly Cloudy
5:56 PM 89.1 °F - 46.0 °F 22% 29.88 in 10.0 mi West 5.8 mph - N/A   Scattered Clouds
6:56 PM 86.0 °F - 48.0 °F 27% 29.87 in 10.0 mi North 5.8 mph - N/A   Clear
7:56 PM 82.9 °F - 48.0 °F 29% 29.86 in 10.0 mi WSW 9.2 mph - N/A   Clear
8:56 PM 82.0 °F - 50.0 °F 33% 29.87 in 10.0 mi West 8.1 mph - N/A   Clear
9:56 PM 80.1 °F - 48.9 °F 34% 29.89 in 10.0 mi WNW 9.2 mph - N/A   Clear
10:56 PM 79.0 °F - 48.0 °F 34% 29.90 in 10.0 mi WSW 5.8 mph - N/A   Partly Cloudy
11:56 PM 75.9 °F - 50.0 °F 40% 29.91 in 10.0 mi South 5.8 mph - N/A   Partly Cloudy